Theta_e
280 280 282 283 283 284 283 283 284 284 285 285 285 284 284 285 285 285 285 285 285 284 283 283 283 283 282 282 282 281 281 280 281 280 280 280 280 280 280 280 280 280 280 279 280 281 282 282 282 282 282 282 282 282 283 283 283 283 283 284 284 285
281 282 283 284 285 286 286 286 285 284 285 284 284 284 284 284 284 284 283 284 282 282 283 282 282 282 282 282 281 281 280 280 280 280 280 280 280 279 279 279 279 280 280 280 280 280 279 280 280 281 281 281 281 281 282 282 283 282 282 283 283 284
283 283 284 284 284 284 284 284 283 283 282 282 282 282 282 282 282 282 282 281 281 280 280 279 280 280 281 281 280 281 281 281 281 281 280 280 280 280 280 280 280 279 279 279 279 279 279 279 279 279 279 279 279 280 280 281 281 281 281 282 282 283
284 283 283 283 283 282 282 282 281 281 282 280 280 280 280 280 281 281 281 280 280 280 279 279 279 278 278 279 279 280 280 279 280 280 280 279 280 280 280 280 280 280 279 279 279 279 279 279 279 279 279 279 278 279 280 280 280 280 280 281 280 281
284 283 282 282 282 281 281 280 281 280 280 280 280 280 280 280 280 280 280 279 279 279 278 278 278 278 278 279 278 278 279 279 279 279 279 279 279 279 278 278 278 279 279 279 279 279 279 279 278 279 278 278 278 278 278 279 278 279 279 279 280 280
283 282 281 281 282 282 281 280 280 280 280 280 281 280 281 280 279 279 279 279 279 277 278 278 277 278 277 278 278 278 278 278 278 278 278 278 278 278 279 278 278 278 278 278 278 278 278 278 278 278 278 278 278 278 278 278 278 278 278 278 279 279
282 283 283 282 282 281 280 280 280 281 281 280 279 279 279 278 278 278 278 278 278 277 277 277 277 277 277 276 277 277 277 277 277 277 277 277 277 277 277 278 277 278 277 278 277 277 277 277 278 278 278 278 278 278 278 278 278 278 278 278 278 280
281 280 280 280 280 280 280 279 279 278 278 277 278 278 278 278 277 277 277 277 277 277 276 276 276 276 276 276 276 276 276 276 276 276 276 276 276 277 277 277 277 277 276 276 277 277 277 277 277 277 277 277 278 278 278 278 277 277 277 278 278 278
280 280 280 280 280 279 279 278 278 278 277 277 277 276 277 277 277 277 277 276 276 276 276 275 275 276 275 276 276 276 276 276 275 275 275 276 275 275 275 275 275 275 275 275 275 276 276 276 276 276 277 277 277 277 277 277 277 277 278 278 278 278
280 280 280 279 279 277 277 277 277 277 277 277 276 276 276 277 276 276 276 276 275 275 275 275 275 275 275 275 275 275 275 275 275 275 275 274 274 274 274 273 273 274 274 274 274 275 275 275 275 275 276 276 276 276 277 277 277 277 277 278 278 278
280 280 279 279 277 277 277 278 277 277 276 276 276 275 275 275 275 275 275 275 275 275 274 275 275 275 274 274 274 274 274 274 273 273 273 273 272 273 272 273 273 273 273 273 273 273 273 273 274 274 274 274 274 275 275 276 276 276 276 276 277 277
280 280 279 277 278 277 278 278 277 277 276 275 275 274 275 274 274 274 274 274 274 274 274 273 273 273 273 273 272 272 272 272 271 271 271 271 271 271 271 271 271 271 271 271 271 271 271 271 271 273 275 276 275 274 274 274 274 274 274 275 275 275
278 277 277 278 277 278 278 278 277 276 275 274 274 274 274 273 273 272 272 272 273 272 272 272 272 272 271 272 271 271 270 270 269 269 269 269 269 269 269 269 269 269 269 268 268 268 268 268 269 273 275 276 277 274 273 273 273 273 273 273 273 274
277 277 278 278 278 278 278 277 276 274 274 273 273 273 273 272 272 271 271 272 271 272 271 271 271 270 270 269 269 268 267 267 267 267 267 267 267 267 267 267 267 267 266 266 266 266 266 267 269 272 273 274 275 275 273 272 272 272 272 273 273 273
278 278 278 278 278 278 278 277 275 274 273 272 273 272 271 271 271 270 270 271 270 270 270 269 268 268 267 267 266 266 266 265 265 265 265 265 265 266 265 265 265 265 265 265 264 264 265 265 268 270 272 273 274 275 274 272 272 271 271 272 272 272
278 278 278 278 277 277 276 274 274 273 272 272 271 270 270 269 269 269 269 269 269 269 268 267 265 265 265 265 264 264 264 264 263 264 264 264 264 264 264 263 263 264 263 264 263 263 263 263 266 270 272 273 273 274 274 271 271 270 270 270 270 270
277 277 276 276 274 273 272 272 272 272 271 270 270 269 268 268 267 267 269 267 268 267 266 266 265 264 264 264 263 263 262 262 262 263 263 263 263 262 262 262 262 262 262 262 262 262 262 262 268 270 271 272 273 274 273 270 270 269 269 269 269 269
277 277 276 275 273 272 271 271 271 269 269 268 269 267 267 266 266 267 267 266 266 265 266 264 263 263 263 263 262 261 262 261 261 261 262 262 262 262 262 262 261 261 261 261 261 261 261 262 268 269 270 271 272 273 270 269 268 267 268 268 269 269
278 277 275 273 272 271 270 270 268 268 267 266 266 265 265 265 265 266 266 265 264 264 264 264 263 262 261 262 261 260 260 261 261 261 261 260 261 261 260 260 260 260 260 260 260 260 260 261 264 268 270 271 272 271 267 267 267 267 267 267 268 269
275 274 273 271 270 270 269 267 267 266 265 265 265 265 265 264 264 265 264 264 263 263 263 262 261 261 261 260 259 260 260 260 260 260 260 260 260 259 259 260 260 260 260 260 259 260 260 260 264 268 269 270 271 270 267 267 266 266 267 267 268 268
274 272 270 269 268 268 267 265 264 264 264 264 264 264 263 263 264 264 263 263 263 263 261 261 260 260 260 259 260 259 259 259 259 260 260 259 259 259 259 259 259 259 259 259 259 261 261 260 262 267 268 270 270 269 267 267 266 266 266 266 266 268
270 269 269 268 268 266 265 264 264 263 263 263 263 263 262 263 263 263 263 262 262 261 260 259 259 259 259 259 259 259 259 259 259 259 259 259 259 258 259 258 258 258 258 259 259 259 260 260 260 262 268 269 270 271 268 268 266 266 266 266 266 266
271 270 269 268 266 265 264 263 262 262 262 263 262 261 263 263 262 262 262 262 260 259 259 258 258 258 258 258 258 259 259 259 259 259 258 258 258 258 258 257 257 257 258 258 259 259 259 260 260 261 268 269 270 271 271 267 267 267 267 266 267 267
268 267 266 266 265 264 263 262 261 262 262 261 260 261 263 262 262 261 259 259 258 258 257 257 257 257 257 257 257 257 257 258 258 258 257 257 257 257 256 257 257 257 257 258 259 259 259 260 262 261 266 269 270 271 272 269 268 269 268 267 267 268
267 267 265 264 263 263 263 260 259 259 260 260 261 261 261 261 261 260 259 258 257 256 256 256 256 257 257 257 257 256 257 257 257 256 256 256 256 256 256 256 256 256 257 257 258 258 259 259 260 265 264 268 271 272 272 273 271 273 271 269 268 268
267 265 264 263 262 262 263 260 258 259 258 260 262 260 260 259 258 257 256 255 256 256 256 255 256 256 255 256 256 256 256 256 256 256 255 256 256 256 256 256 256 256 256 256 256 257 259 260 260 263 267 267 270 272 273 273 274 274 271 270 270 270
266 264 263 263 261 261 260 259 258 258 257 260 260 258 258 257 256 254 253 254 253 254 255 255 255 255 255 255 255 255 256 256 256 255 255 255 255 256 255 255 256 255 255 256 256 257 258 260 261 261 264 269 270 272 273 273 274 274 275 271 270 270
263 262 262 261 260 261 259 259 258 255 257 259 259 258 256 255 253 253 253 253 254 254 254 254 255 255 255 255 255 255 255 255 256 256 256 255 255 255 255 255 255 255 256 257 258 259 260 261 262 263 264 266 267 268 270 272 273 273 274 273 272 274
262 260 260 260 259 259 258 256 257 257 258 256 258 258 256 253 253 253 253 253 254 254 254 254 254 255 255 254 255 255 255 256 256 255 256 255 255 255 256 256 257 257 258 259 260 261 262 262 263 264 265 266 266 266 267 268 268 271 272 270 269 271
262 260 259 259 260 259 258 257 256 256 256 255 256 254 253 253 253 253 252 253 253 254 254 254 256 256 256 255 255 255 256 256 256 255 255 256 256 257 257 258 259 259 260 260 261 262 263 263 265 265 266 266 267 267 268 269 269 269 268 267 267 267
260 259 258 259 259 257 256 255 255 255 255 257 255 253 252 252 253 253 251 252 253 253 255 255 255 255 255 255 255 255 256 256 256 256 257 259 260 260 260 260 261 262 263 264 264 264 264 265 265 266 270 270 273 271 270 270 270 270 271 272 275 272
259 258 257 258 258 256 255 254 255 254 256 255 253 252 252 252 252 251 252 253 253 254 254 254 254 254 255 255 255 255 256 260 263 263 261 261 265 268 269 269 265 266 266 266 266 267 266 265 267 272 273 273 274 275 275 275 275 275 274 275 276 274
257 256 256 257 256 255 255 255 255 254 254 255 255 253 252 251 252 252 252 253 253 255 255 254 254 255 254 255 255 255 255 255 257 263 265 265 266 267 268 269 270 270 271 268 266 268 271 272 272 272 273 273 274 274 274 275 275 276 276 275 272 269
256 256 256 256 256 255 254 254 253 253 253 253 252 252 251 251 251 252 253 253 253 255 255 254 254 255 255 255 255 255 255 254 254 255 261 264 265 266 267 268 268 269 269 269 268 267 266 269 271 272 272 273 273 273 274 274 274 275 275 274 273 266
258 257 256 256 255 254 254 252 253 252 252 252 251 251 251 250 251 251 252 253 254 254 255 255 254 255 254 254 254 254 254 254 254 254 254 257 263 264 265 265 266 267 267 268 269 269 269 269 270 271 271 272 272 273 273 274 273 272 272 271 266 262
257 256 255 254 253 253 252 252 252 252 252 252 252 252 250 250 252 251 251 252 253 254 254 254 254 254 254 255 255 254 254 254 254 254 255 255 255 256 259 261 263 264 266 266 268 268 269 269 270 270 271 272 272 272 271 271 267 268 269 267 263 262
255 254 254 254 253 252 252 253 253 252 252 251 250 249 248 249 251 251 253 256 256 253 254 254 255 255 254 254 254 254 255 255 255 255 255 254 254 254 254 255 257 261 263 263 264 266 268 268 269 270 271 271 270 270 269 267 260 259 260 261 261 262
254 253 253 254 253 252 250 252 253 253 251 249 248 248 248 249 250 251 253 253 254 254 254 254 254 254 254 254 254 255 256 256 255 254 254 255 255 255 255 255 256 257 261 264 265 265 266 268 269 270 270 268 268 268 266 258 257 257 258 259 259 259
Wind_Speed
3 3 4 3 2 2 3 3 3 3 3 4 5 6 5 4 3 3 3 3 2 2 2 2 2 2 2 2 3 3 4 5 5 5 4 5 5 6 6 6 6 6 6 5 5 6 6 6 6 6 6 6 7 7 7 8 7 8 8 7 5 5
4 4 4 4 4 3 2 3 3 4 3 4 4 4 4 3 4 3 3 2 2 2 1 1 1 1 2 2 3 4 4 4 4 5 6 6 5 5 5 5 6 7 8 7 7 7 6 7 6 6 6 6 6 6 7 8 8 8 8 9 8 7
5 4 3 2 1 1 2 2 3 1 2 3 3 3 3 3 1 2 2 2 2 2 4 3 4 4 3 4 4 5 5 5 5 5 4 5 7 6 8 8 8 7 7 7 7 7 8 7 8 7 6 6 7 7 7 7 7 9 9 8 10 8
5 4 1 1 1 2 3 1 1 1 1 1 1 1 1 1 1 1 1 1 1 2 3 3 3 3 3 4 4 5 5 5 6 5 6 7 7 6 7 8 7 7 8 8 9 9 9 8 8 8 7 8 8 8 6 7 8 9 10 9 10 10
5 5 4 4 4 3 1 1 1 1 1 0 0 0 2 1 2 1 1 2 3 4 4 4 5 5 6 6 6 6 6 6 6 6 7 7 7 6 5 6 6 7 8 8 8 9 9 9 9 8 8 8 8 9 9 7 8 9 10 10 10 10
4 4 4 4 3 3 4 3 3 2 2 2 1 2 4 3 2 3 3 3 4 4 5 5 5 6 6 6 5 6 6 6 5 5 5 6 6 7 8 7 8 8 7 8 9 9 9 10 10 11 9 8 8 9 10 9 9 9 9 9 10 10
6 6 5 4 4 4 4 4 4 4 4 1 2 2 4 3 2 2 2 2 3 4 5 5 4 4 4 4 4 4 4 4 5 4 5 6 6 5 7 7 5 7 7 8 9 10 10 11 11 11 11 10 9 9 10 11 10 10 10 10 10 10
6 5 5 4 4 5 4 3 1 1 1 1 1 0 1 2 1 1 3 3 3 4 4 3 3 3 3 3 4 4 4 4 4 4 4 4 6 7 6 7 8 7 9 8 8 9 9 9 9 10 10 11 11 10 10 10 10 10 11 12 12 11
8 7 6 5 5 3 1 1 1 0 1 2 2 1 1 2 3 4 4 4 3 2 2 2 3 3 3 4 4 4 4 4 5 5 6 6 6 7 8 8 9 9 8 10 9 9 9 10 9 9 10 10 10 10 11 12 13 12 11 11 12 12
7 7 6 5 4 3 3 1 1 2 3 4 3 3 3 3 4 4 4 3 2 2 3 3 3 3 4 3 3 4 4 4 5 5 5 6 8 8 8 9 10 9 8 9 9 9 9 10 10 9 9 9 10 11 11 12 13 14 13 13 12 11
8 7 6 5 4 4 4 4 4 4 4 3 3 3 3 3 4 3 3 2 2 3 3 3 3 3 3 4 4 5 5 6 6 6 6 7 7 7 7 8 8 9 10 10 9 10 9 8 9 8 10 12 13 12 13 13 13 13 13 13 12 13
8 7 6 5 6 5 5 5 5 5 5 4 3 3 2 3 3 3 2 1 1 1 1 2 2 3 3 4 5 5 5 6 7 7 7 7 7 7 7 7 7 8 9 11 11 10 9 10 8 12 22 19 13 14 12 11 12 13 14 14 15 15
6 5 6 7 7 8 8 6 6 5 4 4 3 3 2 3 3 3 3 2 2 2 3 3 4 4 5 4 5 6 7 8 8 8 8 7 7 7 7 8 9 8 9 10 11 12 10 9 9 19 20 21 24 17 12 12 12 12 13 13 15 14
7 7 8 8 8 8 7 7 6 5 5 4 3 3 2 3 3 3 2 1 2 3 3 3 4 5 5 6 7 8 6 7 7 8 8 8 9 8 8 8 8 9 9 9 10 10 10 10 13 19 21 23 24 21 16 14 14 13 12 12 12 14
9 10 8 7 8 8 6 7 7 6 5 4 3 3 3 3 3 2 2 2 3 3 3 4 5 5 5 5 6 6 6 7 8 7 8 9 8 8 9 8 9 9 9 9 11 11 11 10 16 20 22 23 24 24 21 14 16 16 15 15 14 14
6 6 7 7 5 5 5 4 5 5 3 4 3 3 2 3 3 3 2 2 3 3 3 4 4 4 5 5 6 6 6 7 7 7 7 8 8 8 8 8 9 9 9 9 10 11 11 12 16 23 23 24 25 24 22 16 17 16 16 17 16 15
6 6 5 6 6 6 6 5 5 4 3 3 3 3 3 3 3 3 2 2 2 3 3 5 4 5 5 5 5 6 6 6 7 7 7 7 7 8 9 9 9 9 8 9 9 11 12 11 20 23 24 24 25 25 22 15 15 15 15 15 15 16
11 11 9 6 6 5 4 5 4 4 3 2 4 3 3 2 2 1 1 2 2 3 4 4 4 5 5 6 6 6 7 7 6 8 7 7 7 6 6 7 6 9 10 9 10 11 13 12 21 24 24 25 24 26 16 14 15 15 15 15 15 15
9 8 7 7 5 6 5 4 4 4 3 3 2 3 2 2 1 1 1 1 2 3 3 4 4 5 6 6 7 7 7 8 8 7 5 8 8 8 8 7 8 7 9 11 10 11 13 12 18 23 24 24 25 21 13 14 13 13 15 15 15 14
4 5 8 8 5 4 4 4 4 4 3 2 2 2 2 2 1 0 1 1 2 3 3 4 4 5 6 6 7 8 8 7 6 6 5 7 10 10 8 8 9 7 7 10 11 10 13 13 17 23 24 25 24 21 15 13 13 13 13 14 14 13
7 8 7 7 8 5 4 4 4 3 2 2 2 2 2 2 1 0 1 2 2 3 3 3 3 4 5 6 7 7 9 8 8 7 6 7 7 9 8 8 9 9 8 8 10 15 16 13 15 22 23 25 24 19 13 12 12 14 13 14 14 13
9 7 8 9 8 6 5 4 3 3 2 2 2 1 1 2 0 0 1 2 2 3 3 3 4 4 5 8 8 7 7 7 7 7 7 8 6 8 8 8 9 11 10 8 10 10 10 13 12 15 24 23 24 24 16 11 11 11 14 14 14 13
10 11 9 7 7 6 4 3 3 2 2 1 1 2 2 1 0 1 1 2 3 3 4 4 4 6 6 6 8 8 7 6 8 8 8 8 8 7 9 9 9 10 10 9 9 10 11 10 13 14 23 24 25 25 22 12 12 12 12 11 12 12
6 6 6 5 7 6 4 4 3 1 1 0 2 3 0 0 1 1 1 2 3 4 4 4 5 5 6 6 6 8 9 7 7 8 8 7 7 9 10 9 9 9 10 9 9 10 11 12 18 14 19 24 25 25 27 16 12 14 13 13 10 9
8 8 8 6 5 5 3 4 3 2 1 2 3 1 1 1 1 2 2 3 4 4 5 5 5 6 5 6 6 8 10 8 7 7 7 8 8 9 10 9 9 9 10 10 9 9 11 11 11 19 17 23 25 26 26 26 21 24 16 12 12 12
7 7 6 5 5 4 4 5 4 3 3 5 1 1 1 0 1 1 2 3 4 5 5 5 5 6 5 6 7 7 9 9 8 7 6 7 7 8 9 8 8 8 9 11 11 10 10 10 10 14 22 20 25 25 26 26 27 26 16 14 12 11
10 8 6 5 4 5 4 4 4 3 3 2 2 1 1 1 1 2 3 4 5 5 5 5 5 6 6 6 6 8 8 9 7 8 6 5 7 7 8 9 7 8 9 10 11 11 10 11 11 10 15 23 23 25 26 27 29 28 28 18 13 13
7 8 7 4 5 5 4 4 4 3 3 1 1 1 1 1 2 3 4 5 5 6 6 6 6 6 6 7 6 7 7 8 8 8 8 6 7 7 8 9 8 8 9 10 10 11 11 11 11 11 11 11 14 17 24 30 29 29 29 27 20 26
8 8 7 6 4 5 4 3 3 3 2 1 2 1 1 1 2 3 4 5 5 5 5 6 6 7 5 5 5 6 6 7 7 7 7 7 8 8 7 8 8 9 9 10 10 11 11 11 10 11 10 10 10 11 14 16 16 23 25 18 14 18
9 8 7 6 6 4 4 3 3 2 2 2 2 1 0 1 2 4 4 5 5 5 5 6 7 8 7 6 5 7 7 6 6 7 7 7 8 9 9 8 9 10 11 10 10 11 10 10 10 10 9 11 11 12 11 11 10 9 8 10 11 13
8 7 7 5 5 4 4 3 3 1 2 2 1 1 1 2 3 3 4 5 5 6 5 6 6 6 6 7 6 6 6 8 8 8 9 9 8 8 9 8 8 10 10 8 9 9 9 11 10 8 15 18 22 19 16 12 11 11 11 14 23 17
8 7 6 4 5 4 4 4 3 3 2 2 2 1 2 3 2 3 4 5 5 6 5 5 5 5 6 6 7 8 8 9 16 13 10 10 15 21 22 19 12 11 10 9 8 9 10 8 11 23 29 27 27 27 28 27 28 28 22 25 31 19
5 6 5 5 4 4 4 3 3 2 2 2 2 2 3 3 3 3 4 4 5 6 5 5 5 5 5 6 6 7 8 11 11 15 18 17 17 19 20 20 23 23 22 15 11 12 22 25 26 27 26 27 26 27 27 28 28 29 29 27 17 8
6 7 7 5 5 4 4 4 3 3 3 3 3 2 3 3 3 4 4 5 5 6 6 4 5 6 6 6 5 6 7 8 11 15 14 12 14 16 18 20 20 19 19 20 19 16 12 18 24 26 26 26 26 26 26 27 28 26 25 24 22 10
7 6 4 5 5 4 4 4 4 3 3 3 3 2 2 3 3 4 4 4 5 5 6 5 5 5 5 6 7 7 6 7 8 10 16 18 12 12 15 14 15 17 18 21 23 24 22 21 21 25 25 25 25 25 24 25 25 24 23 22 11 7
6 5 5 5 5 5 4 4 5 4 4 3 3 3 4 4 4 4 4 4 5 5 5 5 5 5 5 5 6 6 7 7 6 8 8 12 18 17 8 5 10 16 21 22 24 23 22 22 23 24 24 24 23 23 23 22 16 20 18 13 9 9
6 5 5 6 5 4 4 6 5 4 4 3 3 3 3 4 4 4 5 8 7 4 5 5 5 5 6 6 6 6 7 6 7 7 7 8 9 11 15 16 13 11 13 16 17 19 21 22 24 24 23 23 22 22 22 19 11 12 12 9 7 8
5 5 4 4 5 4 4 7 5 4 4 4 3 3 4 4 4 4 4 3 5 4 4 5 5 5 6 6 6 5 5 7 7 7 7 7 6 8 11 13 13 12 15 20 16 16 19 22 22 21 21 20 20 20 20 11 10 10 9 9 9 8
Wind_Direction
175 168 155 160 144 137 129 125 116 101 86 85 87 86 87 85 72 75 81 85 104 120 110 99 81 75 71 54 45 37 35 18 6 3 343 339 343 349 347 347 347 346 346 347 338 340 338 336 334 332 333 337 333 332 327 327 332 329 324 318 311 292
190 177 162 145 130 116 104 109 86 75 81 82 76 73 67 60 51 54 62 43 63 29 37 32 12 64 44 61 42 32 28 11 4 355 356 345 338 344 342 343 341 342 342 343 340 335 336 335 335 337 331 330 326 321 324 320 324 321 319 316 317 316
190 194 181 155 87 126 119 116 121 136 108 89 73 84 43 37 12 59 43 38 29 35 18 358 10 357 4 16 22 19 9 3 360 360 344 338 348 347 344 343 340 338 337 334 335 335 332 334 331 335 332 331 326 325 318 317 319 317 314 312 310 310
190 199 201 123 122 138 128 53 75 75 98 109 55 56 32 45 331 345 327 14 12 44 2 349 353 357 9 15 17 9 1 356 353 347 349 349 335 349 338 336 333 332 332 335 333 333 331 328 328 327 332 328 326 321 322 321 319 314 311 313 308 308
190 187 187 185 179 181 182 270 217 222 256 285 262 164 267 209 246 284 355 358 2 1 358 2 16 356 13 5 3 358 348 346 343 348 349 340 335 334 333 325 325 324 327 328 328 327 327 327 324 323 325 323 322 319 316 314 312 308 306 306 302 302
190 182 190 195 200 202 219 225 240 258 268 258 237 218 247 269 318 326 349 351 356 18 5 17 7 10 6 3 348 344 334 335 332 333 338 326 331 330 327 334 329 329 329 327 326 327 325 325 324 323 323 321 320 316 310 309 306 300 297 294 295 295
192 192 191 193 201 211 223 224 226 228 249 299 333 335 3 1 353 8 7 32 5 18 23 9 6 2 345 335 329 321 320 324 324 327 328 325 327 324 323 321 327 322 326 327 325 324 324 322 321 321 321 321 318 312 308 306 304 300 295 291 288 286
194 190 196 201 206 210 218 238 326 350 357 30 22 53 351 4 21 94 87 70 66 36 26 347 342 329 320 321 323 324 325 326 330 328 326 330 329 331 329 326 329 330 323 323 320 316 314 314 316 316 315 315 314 311 306 302 298 295 293 291 287 283
196 196 200 203 209 206 187 166 191 170 57 50 31 48 82 60 87 73 72 62 59 48 347 336 335 332 337 340 336 338 344 345 342 344 343 344 342 336 333 333 329 329 326 321 321 319 319 318 316 316 312 310 309 307 305 304 301 296 293 288 288 287
197 201 207 210 203 162 168 164 155 122 115 108 92 84 89 77 81 73 71 67 39 21 352 347 331 341 341 340 346 348 347 344 345 347 344 345 339 334 333 331 328 323 325 320 321 319 321 318 318 319 317 314 315 312 307 304 301 299 296 294 290 286
202 205 207 198 171 168 160 139 125 113 104 109 106 91 88 95 88 82 80 53 42 2 340 327 330 342 347 346 351 351 351 352 347 344 342 336 331 329 326 325 324 324 323 321 320 322 322 319 317 321 321 318 312 308 303 301 298 298 296 295 291 289
201 203 191 177 174 167 159 149 148 150 145 141 133 105 123 113 110 107 105 90 77 322 314 326 341 350 348 352 355 354 351 346 341 337 334 331 328 326 324 324 328 324 321 323 323 321 321 317 315 315 313 312 310 308 305 300 296 293 289 288 288 285
199 187 182 185 180 177 168 161 152 147 135 142 140 130 128 114 100 83 68 32 12 347 354 357 354 355 358 357 351 350 347 343 339 334 329 329 329 327 330 330 325 328 327 322 319 318 314 309 310 313 314 313 309 306 300 296 291 286 284 282 284 285
190 189 193 189 182 172 162 156 158 151 156 157 141 120 102 86 83 78 54 32 2 359 2 358 0 0 355 355 350 346 344 337 336 333 330 329 331 330 331 327 328 330 325 321 318 313 312 310 311 315 313 310 306 303 299 294 290 288 284 281 281 283
194 194 188 176 173 169 176 158 155 166 157 141 131 103 86 89 91 80 53 29 7 6 6 12 10 356 350 347 345 337 337 336 331 330 330 326 326 323 325 327 326 322 323 318 316 313 310 306 311 311 309 307 305 304 302 294 291 290 290 290 290 289
186 183 175 169 163 159 149 159 147 140 130 114 112 106 100 90 55 60 32 26 9 16 21 14 1 346 338 337 337 336 332 331 324 322 320 316 321 320 317 319 316 317 318 318 313 308 306 303 307 308 307 306 304 303 301 294 293 291 289 290 290 291
167 154 152 163 159 153 141 123 119 113 102 117 104 89 74 63 57 35 20 13 13 35 15 4 346 336 331 332 330 328 323 319 316 316 316 317 316 318 316 318 317 314 313 311 308 304 301 299 304 305 305 303 302 301 301 296 294 292 290 290 290 289
174 175 176 154 147 145 127 129 122 117 113 85 95 75 77 83 65 18 13 22 41 26 2 352 337 329 328 325 323 321 316 314 311 313 316 310 305 297 299 300 301 304 307 306 304 301 298 297 304 304 303 301 301 302 301 298 294 292 290 289 290 289
179 172 141 143 144 134 132 123 122 123 115 94 90 91 76 72 39 345 34 65 28 10 355 342 332 323 321 321 318 313 310 312 312 309 310 304 302 303 302 297 297 299 300 301 299 297 295 295 301 301 301 302 302 304 298 295 291 290 291 291 292 292
114 119 141 140 132 128 126 130 133 127 118 116 90 78 50 51 332 342 66 25 8 349 336 332 325 315 313 311 305 303 302 302 299 297 304 300 304 302 298 298 298 292 290 292 293 292 293 293 297 300 301 302 303 301 298 297 293 290 290 291 291 293
149 140 133 137 140 147 139 140 140 129 119 101 76 59 36 344 305 39 23 340 341 324 323 314 310 303 300 298 295 297 299 301 299 298 297 288 289 290 297 297 294 293 288 283 285 291 291 289 294 298 299 301 302 301 294 291 287 290 291 292 292 290
125 137 154 163 159 145 146 142 119 103 90 56 59 24 322 286 166 98 351 312 315 309 306 300 296 290 289 291 293 292 290 293 296 293 293 290 286 290 293 291 290 291 291 288 286 285 283 286 286 291 297 300 300 299 295 286 286 285 288 288 287 287
166 168 169 153 145 143 142 126 105 86 82 83 30 254 249 196 101 328 311 309 296 291 288 288 280 287 284 281 288 290 290 288 287 292 289 290 290 285 288 289 288 288 287 287 283 283 283 279 285 287 295 298 298 297 297 287 281 280 279 279 276 270
142 128 128 142 141 141 128 110 97 108 127 150 237 242 163 114 292 302 292 285 287 284 284 280 280 274 281 286 287 291 287 281 277 279 284 283 285 287 286 288 288 288 288 287 284 282 282 282 283 287 292 294 294 295 296 295 287 286 282 280 272 272
163 164 155 148 142 132 125 109 118 146 165 220 244 179 160 224 250 278 279 288 283 283 283 284 286 288 287 287 283 282 285 285 283 277 273 280 283 282 284 286 288 290 291 291 287 284 282 281 278 286 287 289 292 295 298 296 295 293 292 286 282 278
154 150 152 147 142 133 132 127 143 167 196 239 186 172 192 226 266 277 287 282 280 284 285 283 285 282 281 280 282 278 280 285 281 277 270 272 277 286 288 287 288 290 291 295 295 289 286 283 280 281 284 285 288 294 297 297 296 296 291 287 282 283
164 152 150 154 145 141 139 141 145 178 209 214 142 228 228 257 276 300 291 285 284 284 281 284 280 281 277 273 273 280 279 282 282 288 276 267 279 279 284 286 285 285 288 290 289 290 289 286 285 281 277 283 287 292 293 292 292 294 294 292 281 273
141 150 159 163 158 152 148 157 149 181 221 165 190 225 243 268 303 299 285 284 285 285 290 294 287 276 271 269 263 259 266 273 285 283 288 282 276 274 278 285 284 280 280 281 283 285 287 288 288 286 284 278 276 277 280 283 284 286 285 283 283 286
154 167 165 174 180 163 166 168 181 194 212 224 239 241 273 306 277 277 281 283 285 287 288 286 289 289 276 269 268 262 264 269 271 275 280 280 281 279 275 277 280 281 279 281 284 285 288 285 280 280 280 283 282 276 273 277 275 273 275 275 271 272
168 170 170 182 179 167 173 182 197 206 208 233 244 244 192 275 267 269 273 279 282 285 283 280 279 283 290 282 278 287 286 272 266 272 273 278 278 282 281 276 278 279 279 275 280 282 277 279 280 281 284 288 281 276 274 268 271 273 259 264 261 257
164 171 168 182 165 165 175 205 220 211 222 235 228 185 205 256 267 273 280 279 285 281 277 275 279 281 284 292 284 266 261 281 286 277 272 253 245 252 261 257 243 262 274 270 279 284 274 284 287 283 298 297 302 304 302 298 295 294 290 289 294 294
159 161 168 171 162 170 188 218 221 216 215 225 232 188 210 249 264 276 277 274 276 276 280 280 279 283 286 288 294 298 289 270 284 286 286 291 288 287 289 291 291 294 293 289 280 281 292 296 298 304 306 307 305 306 307 308 307 306 306 306 308 312
150 147 159 171 166 181 199 213 215 218 231 213 221 200 216 224 244 256 267 274 269 276 284 289 292 289 285 285 293 295 301 308 299 294 291 288 289 292 295 298 299 302 304 305 303 304 303 303 306 306 306 308 310 311 311 310 308 308 309 316 326 334
161 169 179 172 173 188 203 222 228 220 238 225 223 209 208 218 220 253 263 266 274 284 287 282 283 292 292 294 292 296 303 305 312 312 306 302 298 302 303 303 307 310 315 314 312 310 307 306 306 309 312 314 313 312 311 310 313 320 327 327 331 330
172 167 162 160 173 187 206 229 246 228 240 235 224 201 210 228 224 248 264 266 279 282 286 289 288 290 293 299 303 303 301 304 309 312 316 317 310 303 305 312 319 323 322 319 316 313 310 311 314 315 316 316 315 315 320 324 327 329 331 333 338 328
152 157 160 171 179 194 208 233 245 230 232 225 222 208 212 237 239 244 250 264 272 282 287 288 287 291 291 289 291 290 296 295 293 299 305 312 320 326 317 297 330 331 328 322 318 317 318 320 321 321 320 320 324 331 332 333 334 331 337 344 331 323
151 161 172 175 186 192 208 233 240 229 223 226 215 214 227 230 243 246 257 271 283 270 278 283 287 289 289 288 288 290 291 294 300 305 304 307 310 312 317 322 325 325 323 317 315 319 323 324 323 324 327 335 341 340 342 347 340 337 340 342 336 324
158 173 176 181 188 195 216 243 238 230 218 217 202 202 219 232 237 247 256 255 274 276 269 278 276 280 282 286 285 285 298 303 304 300 295 294 290 297 306 310 314 314 317 319 320 319 323 325 327 334 345 347 346 348 355 346 339 335 332 328 326 320